Stations météo

réclame
Mon MeteoGroup
St. Athan, Grande-Bretagne (3716): Température de l'air & dewpoint: 15.09.2018 09:00:00 - 21.09.2018 09:00:00 (BST)St. Athan, Grande-Bretagne (3716): Température de l'air -20cm & Température de l'air -100cm: 15.09.2018 09:00:00 - 21.09.2018 09:00:00 (BST)St. Athan, Grande-Bretagne (3716): Vitesse du vent & gusts: 15.09.2018 09:00:00 - 21.09.2018 09:00:00 (BST)St. Athan, Grande-Bretagne (3716): Direction du vent: 15.09.2018 09:00:00 - 21.09.2018 09:00:00 (BST)St. Athan, Grande-Bretagne (3716): reduced air pressure: 15.09.2018 09:00:00 - 21.09.2018 09:00:00 (BST)St. Athan, Grande-Bretagne (3716): visibility: 15.09.2018 09:00:00 - 21.09.2018 09:00:00 (BST)St. Athan, Grande-Bretagne (3716): Ensoleillement: 15.09.2018 09:00:00 - 21.09.2018 09:00:00 (BST)St. Athan, Grande-Bretagne (3716): Quantités de précipitations: 15.09.2018 09:00:00 - 21.09.2018 09:00:00 (BST)
Date & Time tt [°C] td [°C] tt -20cm [°C] tt -100cm [°C] ff [km/h] ff [knt] fx [km/h] fx [knt] dd ppp [hPa] vv [km] sd [min] rr [mm]
21.09.2018 09:00:00 11,4 6,9 - - 26 14 55 30 W 1008,1 10 18 0,4
21.09.2018 08:00:00 11,3 4,8 - - 35 19 59 32 W 1007,0 28 0 0,4
21.09.2018 07:00:00 10,6 6,5 - - 26 14 61 33 WNW 1006,1 35 0 1,0
21.09.2018 06:00:00 10,4 6,6 - - 28 15 - - WNW 1005,1 25 0 0,0
21.09.2018 05:00:00 9,2 5,8 - - 28 15 54 29 WNW 1004,3 45 0 0,0
21.09.2018 04:00:00 9,8 7,3 - - 37 20 61 33 WNW 1003,2 27 0 0,4
21.09.2018 03:00:00 10,6 9,0 - - 37 20 50 27 WNW 1001,5 6 0 0,4
21.09.2018 02:00:00 11,9 9,3 - - 31 17 65 35 W 999,7 19 0 0,0
21.09.2018 01:00:00 13,6 10,7 - - 48 26 80 43 W 998,2 13 - 0,0
21.09.2018 00:00:00 15,2 11,3 - - 50 27 81 44 WSW 997,2 13 0 0,6
20.09.2018 23:00:00 16,4 15,1 - - 41 22 61 33 WSW 995,9 5 0 6,0
20.09.2018 22:00:00 18,1 15,4 - - 39 21 61 33 SSW 996,0 9 0 0,6
20.09.2018 21:00:00 17,7 16,0 - - 24 13 - - S 997,5 9 0 1,8
20.09.2018 20:00:00 18,4 15,9 - - 22 12 - - SSW 999,2 25 0 0,6
20.09.2018 19:00:00 17,9 15,7 - - 21 11 - - S 1000,7 14 0 0,2
20.09.2018 18:00:00 18,6 15,5 - - 22 12 46 25 SSW 1002,2 5 0 0,0
20.09.2018 17:00:00 18,5 15,6 - - 22 12 - - SSW 1003,5 10 0 0,0
20.09.2018 16:00:00 18,3 15,9 - - 24 13 46 25 SSW 1004,7 10 0 0,0
20.09.2018 15:00:00 18,5 16,0 - - 22 12 46 25 SSW 1005,4 10 0 0,0
20.09.2018 14:00:00 18,5 15,8 - - 22 12 - - SSW 1006,0 10 0 0,0
20.09.2018 13:00:00 17,9 15,8 - - 18 10 - - SSW 1006,6 10 0 0,0
20.09.2018 12:00:00 17,9 15,8 - - 18 10 - - SSW 1007,3 10 0 0,0
20.09.2018 11:00:00 14,9 14,8 - - 11 6 - - ESE 1008,3 10 0 1,0
20.09.2018 10:00:00 12,9 12,7 16,4 16,2 13 7 - - ENE 1009,2 4,0 0 3,2
20.09.2018 09:00:00 12,5 12,2 - - 9 5 - - NE 1009,9 5 0 2,8
20.09.2018 08:00:00 12,2 12,0 - - 5 3 - - E 1010,2 3,9 0 0,4
20.09.2018 07:00:00 11,9 11,7 - - 5 3 - - NE 1010,2 4,5 0 0,8
20.09.2018 06:00:00 11,8 11,5 - - 8 4 - - NNE 1010,4 7 0 2,0
20.09.2018 05:00:00 11,6 11,4 - - 8 4 - - NNE 1010,3 2,4 0 1,8
20.09.2018 04:00:00 11,5 11,2 - - 8 4 - - NNE 1011,0 3,2 0 1,6
20.09.2018 03:00:00 11,5 11,0 - - 8 4 - - N 1011,5 8 0 0,4
20.09.2018 02:00:00 12,0 11,6 - - 8 4 - - NW 1012,2 5 0 2,6
20.09.2018 01:00:00 12,4 11,9 - - 9 5 - - W 1012,7 2,4 - 0,6
20.09.2018 00:00:00 12,8 11,9 - - 13 7 - - W 1013,3 3,3 0 0,4
19.09.2018 23:00:00 13,0 11,6 - - 18 10 - - W 1013,7 6 0 0,2
19.09.2018 22:00:00 13,4 11,0 - - 21 11 - - W 1014,0 10 0 0,2
19.09.2018 21:00:00 14,1 9,8 - - 28 15 - - W 1013,3 13 0 0,4
19.09.2018 20:00:00 14,3 11,9 - - 26 14 - - WSW 1013,1 8 0 0,4
19.09.2018 19:00:00 14,8 10,9 - - 24 13 - - W 1013,0 9 0 0,0
19.09.2018 18:00:00 15,6 10,9 - - 28 15 46 25 W 1012,7 10 0 0,0
19.09.2018 17:00:00 15,4 11,7 - - 26 14 - - W 1012,2 7 0 0,0
19.09.2018 16:00:00 15,9 13,5 - - 24 13 50 27 W 1011,6 6 0 0,0
19.09.2018 15:00:00 15,7 13,8 - - 31 17 61 33 W 1010,9 5 0 0,2
19.09.2018 14:00:00 18,9 14,6 - - 44 24 70 38 WSW 1010,0 10 0 0,0
19.09.2018 13:00:00 19,0 13,4 - - 41 22 57 31 WSW 1009,6 10 0 0,0
19.09.2018 12:00:00 20,1 12,5 - - 41 22 59 32 WSW 1009,1 10 18 0,0
19.09.2018 11:00:00 19,6 12,8 - - 35 19 54 29 SW 1008,9 10 60 0,0
19.09.2018 10:00:00 18,8 13,2 16,7 16,2 31 17 50 27 SW 1008,8 10 54 0,0
19.09.2018 09:00:00 18,1 13,9 - - 28 15 50 27 SW 1008,7 10 18 0,0
19.09.2018 08:00:00 17,3 13,3 - - 26 14 - - SW 1008,9 10 6 0,0
19.09.2018 07:00:00 16,7 13,3 - - 18 10 - - SSW 1008,8 14 0 0,0
19.09.2018 06:00:00 16,7 13,1 - - 18 10 - - SSW 1009,3 15 0 0,0
19.09.2018 05:00:00 16,5 13,4 - - 16 9 - - SW 1009,3 13 0 0,0
19.09.2018 04:00:00 16,6 13,3 - - 24 13 - - SW 1009,4 16 0 0,0
19.09.2018 03:00:00 16,8 13,9 - - 21 11 - - SW 1010,1 14 0 0,0
19.09.2018 02:00:00 16,6 13,7 - - 26 14 - - SW 1010,1 15 0 0,0
19.09.2018 01:00:00 16,7 14,5 - - 21 11 - - WSW 1010,1 16 - 0,0
19.09.2018 00:00:00 16,9 14,8 - - 24 13 - - WSW 1010,1 16 0 0,2
18.09.2018 23:00:00 17,9 14,3 - - 26 14 - - SW 1009,7 13 0 0,0
18.09.2018 22:00:00 18,0 14,2 - - 22 12 - - SW 1009,8 16 0 0,0
18.09.2018 21:00:00 18,0 14,5 - - 18 10 - - SSW 1009,7 15 0 0,0
18.09.2018 20:00:00 18,3 14,5 - - 22 12 - - SSW 1009,3 16 0 0,0
18.09.2018 19:00:00 18,6 14,7 - - 24 13 - - SW 1009,2 10 0 0,0
18.09.2018 18:00:00 19,0 14,9 - - 16 9 - - SSW 1009,1 17 0 0,0
18.09.2018 17:00:00 18,9 15,3 - - 16 9 - - WSW 1009,2 10 0 0,0
18.09.2018 16:00:00 19,1 15,5 - - 22 12 - - WSW 1009,3 10 6 0,0
18.09.2018 15:00:00 18,5 15,6 - - 26 14 - - WSW 1009,3 10 0 0,0
18.09.2018 14:00:00 18,4 15,4 - - 29 16 46 25 WSW 1008,9 10 0 0,0
18.09.2018 13:00:00 18,1 15,2 - - 29 16 - - WSW 1008,5 10 0 0,0
18.09.2018 12:00:00 17,6 14,2 - - 28 15 50 27 WSW 1008,1 10 0 0,0
18.09.2018 11:00:00 17,2 13,5 - - 34 18 57 31 W 1007,7 10 0 0,0
18.09.2018 10:00:00 16,8 12,9 16,7 16,2 46 25 68 37 W 1006,4 10 6 0,0
18.09.2018 09:00:00 16,0 12,8 - - 41 22 63 34 W 1005,5 13 0 0,0
18.09.2018 08:00:00 15,9 13,4 - - 44 24 67 36 WSW 1004,1 10 0 0,0
18.09.2018 07:00:00 16,0 14,7 - - 39 21 63 34 WSW 1002,8 4,5 0 0,0
18.09.2018 06:00:00 17,3 14,8 - - 46 25 70 38 WSW 1001,8 35 0 0,0
18.09.2018 05:00:00 18,0 15,4 - - 18 10 - - SW 1001,0 40 0 0,0
18.09.2018 04:00:00 18,5 15,3 - - 21 11 - - SSW 1000,4 40 0 0,0
18.09.2018 03:00:00 18,7 15,6 - - 21 11 - - S 1000,8 30 0 0,0
18.09.2018 02:00:00 18,1 16,0 - - 16 9 - - SSE 1001,6 21 0 0,0
18.09.2018 01:00:00 17,8 15,7 - - 18 10 - - SSE 1002,5 26 - 0,0
18.09.2018 00:00:00 17,7 15,0 - - 21 11 - - SSE 1003,5 25 0 0,0
17.09.2018 23:00:00 17,0 14,2 - - 13 7 - - SE 1005,0 23 0 0,0
17.09.2018 22:00:00 16,5 13,7 - - 11 6 - - SE 1005,9 28 0 0,0
17.09.2018 21:00:00 16,6 13,0 - - 15 8 - - SE 1006,5 40 0 0,0
17.09.2018 20:00:00 15,8 13,5 - - 8 4 - - ESE 1007,3 19 6 0,0
17.09.2018 19:00:00 17,6 14,1 - - 11 6 - - SE 1007,8 40 60 0,0
17.09.2018 18:00:00 18,2 14,7 - - 13 7 - - SE 1008,3 28 48 0,0
17.09.2018 17:00:00 19,1 15,5 - - 15 8 - - SSE 1008,8 35 60 0,0
17.09.2018 16:00:00 18,6 15,7 - - 21 11 - - SSE 1009,8 40 6 0,0
17.09.2018 15:00:00 19,0 16,4 - - 13 7 - - SSE 1010,9 10 0 0,0
17.09.2018 14:00:00 18,6 16,4 - - 15 8 - - SSE 1011,8 10 0 0,0
17.09.2018 13:00:00 19,0 16,7 - - 18 10 - - SSE 1012,3 10 0 0,2
17.09.2018 12:00:00 18,5 17,2 - - 15 8 - - S 1013,0 10 0 0,0
17.09.2018 11:00:00 17,9 16,7 - - 13 7 - - SSE 1013,5 10 0 0,0
17.09.2018 10:00:00 17,9 17,0 16,7 16,2 13 7 - - SSE 1013,7 10 0 0,0
17.09.2018 09:00:00 17,9 16,7 - - 9 5 - - S 1014,0 10 0 0,0
17.09.2018 08:00:00 17,9 15,7 - - 8 4 - - SSW 1014,2 45 0 0,0
17.09.2018 07:00:00 17,8 15,9 - - 11 6 - - SSW 1014,0 50 0 0,0
17.09.2018 06:00:00 17,8 16,3 - - 9 5 - - SSW 1014,1 50 0 0,0
17.09.2018 05:00:00 17,4 16,4 - - 5 3 - - S 1014,3 35 0 0,0
17.09.2018 04:00:00 17,8 16,8 - - 9 5 - - SSW 1014,9 45 0 0,0
17.09.2018 03:00:00 17,3 17,0 - - 8 4 - - S 1015,0 50 0 0,0
17.09.2018 02:00:00 16,3 16,0 - - 5 3 - - ESE 1015,3 8 0 0,2
17.09.2018 01:00:00 16,1 15,8 - - 2 1 - - ESE 1015,8 2,6 - -
17.09.2018 00:00:00 16,1 15,7 - - 2 1 - - NE 1016,3 5 0 0,2
16.09.2018 23:00:00 16,2 15,8 - - 8 4 - - WNW 1016,6 3,7 0 0,8
16.09.2018 22:00:00 16,8 16,4 - - 13 7 - - W 1016,6 3,7 0 0,0
16.09.2018 21:00:00 16,9 16,6 - - 15 8 - - W 1016,6 22 0 0,6
16.09.2018 20:00:00 17,1 16,8 - - 22 12 - - W 1016,2 5 0 0,8
16.09.2018 19:00:00 17,6 17,2 - - 13 7 - - W 1016,0 5 0 1,4
16.09.2018 18:00:00 17,8 17,2 - - 8 4 - - W 1015,8 6 0 0,8
16.09.2018 17:00:00 18,3 16,7 - - 11 6 - - W 1015,8 3,7 0 0,2
16.09.2018 16:00:00 18,9 16,4 - - 11 6 - - SW 1015,8 10 0 0,0
16.09.2018 15:00:00 18,5 16,3 - - 11 6 - - SSW 1016,0 28 0 0,0
16.09.2018 14:00:00 18,3 15,9 - - 11 6 - - SSW 1016,3 10 0 0,0
16.09.2018 13:00:00 17,7 15,5 - - 11 6 - - SSW 1016,5 10 0 0,0
16.09.2018 12:00:00 16,6 15,3 - - 11 6 - - S 1016,5 10 0 1,2
16.09.2018 11:00:00 16,8 14,2 - - 11 6 - - S 1016,8 10 0 0,0
16.09.2018 10:00:00 16,9 14,3 16,4 16,2 13 7 - - SSW 1016,7 10 0 0,0
16.09.2018 09:00:00 16,3 13,5 - - 9 5 - - SSW 1016,8 10 0 0,0
16.09.2018 08:00:00 15,7 11,7 - - 9 5 - - S 1016,9 30 0 0,0
16.09.2018 07:00:00 14,8 11,1 - - 11 6 - - S 1016,7 40 0 0,0
16.09.2018 06:00:00 15,6 10,0 - - 13 7 - - SSW 1017,2 50 0 0,0
16.09.2018 05:00:00 14,9 9,9 - - 13 7 - - S 1017,3 50 0 0,0
16.09.2018 04:00:00 14,4 9,9 - - 9 5 - - SSW 1018,3 45 0 0,0
16.09.2018 03:00:00 14,6 9,8 - - 11 6 - - SSW 1019,1 50 0 0,0
16.09.2018 02:00:00 14,1 9,6 - - 8 4 - - SSE 1019,9 50 0 0,0
16.09.2018 01:00:00 14,9 9,8 - - 11 6 - - SSW 1020,6 45 - 0,0
16.09.2018 00:00:00 14,9 10,4 - - 9 5 - - S 1021,0 50 0 0,0
15.09.2018 23:00:00 15,4 10,5 - - 9 5 - - SSW 1021,3 50 0 0,0
15.09.2018 22:00:00 15,3 10,8 - - 9 5 - - SSW 1021,7 45 0 0,0
15.09.2018 21:00:00 14,6 11,8 - - 9 5 - - SW 1021,9 35 0 0,0
15.09.2018 20:00:00 15,4 12,1 - - 8 4 - - W 1022,1 30 0 0,0
15.09.2018 19:00:00 16,2 11,8 - - 8 4 - - W 1022,1 40 0 0,0
15.09.2018 18:00:00 16,6 11,0 - - 13 7 - - W 1022,1 35 0 -
15.09.2018 17:00:00 17,2 10,5 - - 15 8 - - WNW 1022,5 40 12 0,0
15.09.2018 16:00:00 17,7 11,4 - - 16 9 - - W 1022,9 10 18 0,0
15.09.2018 15:00:00 17,7 11,9 - - 21 11 - - W 1023,5 18 42 0,0
15.09.2018 14:00:00 17,2 11,1 - - 21 11 - - W 1023,9 10 18 0,0
15.09.2018 13:00:00 17,3 11,6 - - 21 11 - - W 1024,0 10 36 0,0
15.09.2018 12:00:00 17,4 12,5 - - 22 12 - - WSW 1024,2 10 54 0,0
15.09.2018 11:00:00 17,1 13,5 - - 21 11 - - WSW 1024,1 10 6 0,0
15.09.2018 10:00:00 16,1 11,9 16,2 16,2 22 12 - - W 1023,9 10 18 0,0
15.09.2018 09:00:00 15,9 11,9 - - 15 8 - - W 1023,7 10 36 0,0

tt = Température de l'air
td = dewpoint
tt -20cm = Température de l'air -20cm
tt -100cm = Température de l'air -100cm
ff = Vitesse du vent
fx = gusts
dd = Direction du vent
ppp = reduced air pressure
vv = visibility
sd = Ensoleillement
rr = Quantités de précipitations

stations d'obs. à proximité